Theta_e
322 321 325 321 306 303 298 298 305 305 309 314 311 315 316 319 314 310 336 339 339 340 342 346 348 349 349 347 346 345 342 342 340 340 341 342 342 342 341 340 339 338 337 341 340 337 337 336 337
315 321 323 317 303 298 300 302 302 308 311 311 312 317 315 316 327 329 333 338 339 339 342 345 345 349 349 348 347 345 343 342 340 338 337 338 340 340 339 337 338 338 338 340 339 336 336 337 338
314 319 314 309 303 298 300 302 307 309 310 309 313 321 320 321 328 331 338 339 339 339 342 344 345 349 348 347 347 345 344 343 341 340 337 337 336 337 336 336 336 337 337 339 339 336 334 338 339
319 319 315 303 300 303 301 304 308 309 309 310 310 312 326 330 330 333 339 338 339 340 341 342 344 348 348 347 347 345 344 343 341 340 339 337 337 336 336 337 337 338 338 338 337 336 336 339 339
321 315 303 301 301 303 306 306 307 307 309 309 310 308 318 324 319 331 338 338 339 340 341 342 342 346 347 347 347 345 344 343 341 340 339 339 333 336 338 338 337 337 337 337 336 336 338 340 340
310 311 298 296 299 303 306 306 306 307 309 310 309 309 317 316 307 310 336 339 340 340 341 340 337 340 343 345 345 345 343 343 342 340 339 338 337 337 338 338 337 337 338 336 336 336 340 339 340
306 303 297 298 297 299 303 303 305 306 307 308 307 307 320 316 306 307 332 339 341 340 341 341 340 340 333 338 340 341 342 341 341 340 338 337 337 337 337 336 337 338 338 338 337 333 339 340 338
311 306 298 299 297 297 303 301 306 305 305 306 308 307 312 318 306 307 317 331 339 340 340 341 342 342 343 344 333 335 337 338 338 337 335 332 331 332 332 331 334 337 338 337 335 334 337 339 338
309 299 294 295 297 297 301 298 302 302 301 302 305 309 313 303 305 308 309 309 316 330 338 340 341 342 341 342 339 331 331 333 333 333 330 328 332 332 331 328 330 334 336 336 335 335 336 336 334
304 297 295 299 300 299 299 297 299 298 299 300 301 306 304 302 304 303 304 306 307 308 315 332 339 340 341 339 342 342 342 341 340 338 337 334 332 332 330 326 326 330 330 333 334 334 334 331 335
302 296 297 298 299 297 296 295 298 297 296 299 300 301 300 300 301 301 301 302 303 305 307 309 310 319 335 338 340 341 342 342 342 339 338 335 332 332 332 331 329 330 323 331 331 332 332 332 333
295 298 298 298 296 295 295 296 294 296 298 298 299 298 298 299 300 300 300 301 302 303 305 307 308 308 313 322 330 339 337 338 339 340 339 336 332 331 330 330 330 329 330 330 332 332 332 331 333
294 294 295 296 295 294 294 293 293 294 298 299 297 298 298 298 299 300 301 301 302 302 303 305 307 307 308 311 317 323 327 336 336 336 337 336 332 329 330 330 327 329 329 330 331 329 330 331 331
293 293 294 294 293 293 290 292 290 295 295 294 295 296 297 297 299 299 300 300 301 301 302 304 305 306 307 307 311 314 321 323 329 335 333 334 332 329 326 326 327 326 327 329 331 328 328 328 329
293 290 292 291 291 291 291 290 288 295 293 293 294 295 296 297 298 297 299 299 301 302 303 303 304 305 305 306 308 310 314 317 320 324 329 333 330 329 326 325 325 325 325 326 329 329 326 325 325
289 289 289 288 289 290 290 290 291 292 291 292 293 295 295 297 297 298 299 299 301 302 302 303 303 303 305 306 307 308 312 315 319 322 325 327 330 330 326 325 326 325 325 325 324 326 325 322 323
288 288 285 287 289 288 288 288 292 291 291 291 293 294 295 295 297 298 299 300 301 301 302 302 304 304 305 306 306 308 310 313 316 319 321 324 326 329 328 327 324 324 324 324 324 323 324 321 320
287 285 284 284 286 287 286 286 291 294 292 291 292 293 293 294 295 297 298 300 301 302 302 301 301 302 303 305 308 309 311 312 315 318 320 322 323 324 326 328 327 323 321 321 322 322 323 322 320
284 284 284 286 286 284 286 286 289 292 292 291 291 291 292 293 296 297 298 299 300 302 304 304 302 303 305 307 308 309 309 312 313 315 316 317 318 319 322 324 326 325 321 320 321 321 319 318 318
284 283 285 286 285 284 286 284 289 290 289 289 290 291 292 293 295 296 297 299 300 300 302 304 305 305 304 305 306 306 304 305 306 308 310 313 313 315 317 321 323 323 322 320 320 320 318 315 308
284 283 282 282 285 285 283 288 290 288 288 290 291 292 292 294 294 295 296 297 299 298 300 303 303 302 302 303 303 302 303 304 304 305 307 309 308 312 312 314 318 319 322 320 318 319 318 311 305
282 284 283 282 282 283 283 285 289 287 288 289 291 292 293 294 294 295 295 295 296 296 298 299 300 300 300 301 300 298 298 297 300 302 304 305 306 306 308 311 314 317 319 319 320 318 317 313 307
282 285 283 282 280 277 280 280 289 285 288 289 291 292 294 295 294 293 294 295 296 296 297 298 298 298 298 299 298 298 297 299 300 301 302 303 304 305 305 307 309 313 315 318 319 318 316 314 310
286 283 281 281 280 278 276 279 287 290 289 288 289 291 293 293 293 293 295 295 295 296 296 297 296 296 297 298 298 297 297 297 298 298 299 300 302 303 303 304 306 308 311 313 315 318 318 314 311
284 281 285 283 281 283 277 277 286 290 288 288 289 290 292 292 292 293 294 294 294 294 294 295 295 295 297 296 296 296 296 296 296 297 298 298 299 301 301 303 305 306 308 312 313 315 317 317 311
282 281 282 277 279 281 275 278 287 288 288 289 290 290 291 291 292 292 294 294 293 292 293 294 295 295 295 295 295 296 296 296 297 297 297 297 298 299 300 302 303 304 305 308 312 313 314 317 315
281 279 280 276 267 274 282 282 286 288 286 287 288 289 290 291 291 293 293 292 291 292 293 294 294 294 295 295 295 295 295 294 293 294 294 294 297 298 299 300 300 301 302 304 308 311 312 315 316
282 284 279 280 276 276 281 279 284 288 287 287 287 289 289 289 291 292 291 291 292 292 294 295 295 293 293 293 292 292 292 293 294 294 294 294 294 295 297 298 299 299 300 303 305 310 312 313 315
280 280 279 279 278 277 276 285 288 288 290 289 288 288 289 290 291 290 290 290 291 294 296 295 293 292 291 291 291 291 290 290 291 291 292 293 293 294 295 296 296 296 296 300 303 306 310 311 312
282 281 281 280 277 276 274 279 288 288 288 287 288 289 290 290 290 289 289 290 293 294 294 292 291 290 290 290 289 289 290 290 289 289 290 292 291 292 293 295 295 295 295 297 301 303 307 309 309
Wind_Speed
13 8 3 4 5 4 3 3 1 3 4 2 4 4 4 5 4 4 4 3 3 8 14 15 11 16 16 16 15 15 13 13 13 11 10 10 10 11 10 10 9 9 10 12 13 12 12 13 11
9 5 3 1 5 7 4 3 6 2 4 7 2 4 4 4 4 3 2 3 2 8 12 14 10 14 15 14 15 15 14 14 13 12 11 11 11 9 10 8 9 9 9 13 14 13 13 13 13
5 4 4 3 3 7 2 5 4 2 4 2 2 2 3 3 4 4 7 5 3 9 12 11 10 13 14 14 15 14 13 12 12 11 12 10 9 10 9 9 9 10 10 12 13 14 15 14 13
3 4 3 6 9 4 3 5 1 2 3 4 4 3 5 4 5 8 9 1 2 7 10 10 9 12 14 14 14 14 14 13 12 11 12 13 12 11 9 9 11 13 13 13 14 12 14 14 13
0 2 5 5 9 4 5 2 3 5 3 2 5 2 2 4 5 7 6 2 1 5 7 9 8 8 12 13 15 15 14 14 14 13 12 11 12 11 11 13 11 13 13 13 15 15 15 13 12
4 2 5 8 9 5 3 2 4 7 5 4 4 3 3 4 7 9 5 2 1 3 4 7 8 5 8 11 14 15 16 15 14 14 14 12 12 13 13 13 12 14 16 14 14 15 13 13 11
3 4 4 4 5 4 3 0 6 5 7 6 3 4 4 5 5 6 4 0 2 3 6 7 10 12 7 8 10 13 14 15 15 15 14 12 13 12 13 13 13 14 15 15 14 17 14 13 12
2 3 3 5 4 3 2 2 1 5 5 3 2 5 4 4 6 4 1 4 2 1 5 7 8 9 11 12 10 11 13 13 13 13 12 11 12 12 12 12 11 13 15 16 17 16 13 13 11
1 5 5 3 5 2 1 2 3 1 7 3 4 5 3 4 6 3 1 1 2 1 3 5 7 8 10 11 9 10 11 13 14 15 14 13 13 15 16 13 12 12 13 16 17 16 14 11 10
5 4 3 0 2 2 2 4 4 5 7 8 9 8 2 4 5 5 4 3 2 3 4 4 6 7 9 8 12 12 13 13 14 15 15 12 14 13 14 14 14 14 12 16 16 17 14 11 10
3 4 1 1 3 3 4 5 4 8 11 14 10 5 3 3 5 5 5 5 7 7 5 5 4 5 7 6 5 5 5 7 9 17 15 12 10 10 11 9 10 11 12 9 14 14 12 15 11
5 3 2 0 1 2 5 4 8 15 13 2 5 3 6 8 7 6 6 9 11 10 10 9 8 7 7 6 6 7 5 6 7 11 16 11 8 9 9 9 13 12 10 12 13 10 13 15 16
5 2 3 3 6 7 8 13 14 17 18 12 9 10 13 11 9 8 10 12 13 13 13 12 8 8 7 7 7 8 8 7 7 9 13 11 10 11 11 12 10 12 13 13 13 14 12 13 15
2 5 8 5 4 5 8 9 3 2 4 3 8 10 9 9 10 11 13 15 11 10 11 11 10 9 8 9 10 9 9 9 9 8 8 13 10 10 11 10 12 10 11 13 13 13 10 10 12
1 6 6 1 3 3 9 10 12 9 4 8 10 10 11 11 10 14 12 10 10 9 9 10 10 8 9 10 9 8 8 9 9 9 12 12 8 11 12 9 8 10 10 13 14 13 10 9 10
2 3 4 2 5 3 5 11 2 3 4 9 11 11 13 15 12 9 8 9 8 9 10 11 9 10 10 10 8 7 8 8 8 9 10 14 14 14 7 10 13 13 11 11 11 13 12 10 11
1 4 3 3 3 3 2 14 3 1 7 18 18 19 15 13 10 5 5 6 7 8 10 11 10 11 10 9 7 7 8 8 8 8 9 12 13 14 11 9 8 10 11 14 15 14 14 13 11
3 4 3 6 2 3 10 26 28 16 15 19 20 16 13 10 7 3 3 4 6 7 8 9 7 9 8 7 6 6 6 6 7 7 8 11 9 12 11 11 11 9 8 9 11 15 13 13 12
1 2 8 5 1 7 7 19 27 21 16 18 15 10 8 6 1 3 2 3 5 6 7 7 7 7 6 6 6 6 7 5 5 6 10 11 10 11 11 9 11 11 11 12 13 14 14 9 11
2 5 6 7 1 6 9 25 26 9 3 4 4 4 5 3 3 1 1 4 6 7 9 11 10 8 7 6 5 5 6 8 8 8 10 11 12 12 11 11 11 12 11 13 15 16 9 9 11
5 6 3 5 9 5 13 12 6 3 4 3 4 3 3 5 4 3 2 3 7 12 13 11 11 10 10 10 8 9 9 9 9 10 10 12 15 13 13 13 11 12 11 11 11 15 23 12 9
5 1 2 6 8 5 6 7 11 1 7 7 7 8 8 8 7 5 1 2 8 13 13 13 13 14 14 15 13 15 13 15 12 13 12 11 14 14 14 14 13 13 10 12 11 11 10 16 18
2 2 3 3 1 4 3 3 8 2 2 2 8 11 10 9 6 4 5 7 8 12 11 13 14 15 16 15 15 13 16 13 12 12 16 16 14 15 16 15 14 13 11 12 13 13 13 10 10
3 3 2 2 2 4 2 2 7 4 3 2 2 7 10 8 6 6 7 9 11 13 13 14 15 16 17 17 18 20 20 18 15 15 13 12 11 11 16 17 15 15 14 14 13 14 14 9 11
3 3 3 3 2 3 2 5 13 6 6 4 4 5 8 6 6 7 9 9 14 16 16 15 16 18 18 19 19 20 21 21 21 18 14 16 12 11 14 17 15 14 15 15 14 15 15 15 13
4 2 2 6 4 5 1 9 6 2 2 6 8 9 12 12 6 8 10 15 15 16 17 17 18 19 18 19 20 18 20 13 14 17 15 13 13 13 16 15 16 17 16 15 15 13 13 15 16
6 4 3 3 2 3 4 7 16 5 10 12 13 11 9 6 7 10 16 15 16 16 18 19 18 18 17 18 16 16 16 18 15 18 16 14 15 14 16 15 17 17 17 16 16 14 16 15 17
3 6 2 1 5 7 6 7 11 5 7 5 3 5 6 6 9 13 14 14 15 16 17 17 17 17 16 18 16 14 15 17 18 16 18 18 16 16 16 15 16 15 16 17 17 16 17 17 14
5 4 3 2 3 5 7 6 7 8 4 5 2 5 8 8 13 14 13 14 15 15 16 17 17 17 16 16 17 16 15 16 16 15 17 18 17 16 16 16 15 17 15 19 18 18 18 21 18
2 2 7 5 5 4 4 15 4 6 4 3 6 9 10 11 14 13 13 14 15 17 17 17 16 19 16 16 16 17 17 17 17 16 17 18 17 16 17 16 16 16 17 16 19 19 18 21 21
Wind_Direction
316 311 279 236 243 252 235 194 297 192 188 80 310 267 345 21 352 9 30 142 349 176 176 180 184 176 173 169 165 160 164 162 162 166 169 165 164 162 157 153 161 170 175 160 144 146 142 145 155
322 303 237 209 246 234 195 151 194 169 344 318 230 224 238 92 41 69 105 345 355 165 176 185 177 175 176 167 161 162 173 172 177 174 176 173 159 165 170 160 178 189 167 153 151 151 151 154 169
294 305 262 248 233 243 220 180 144 337 337 308 205 1 2 58 62 5 2 303 196 171 180 180 168 178 178 171 166 167 175 178 178 187 178 180 188 182 167 183 191 177 172 164 158 163 160 170 170
298 180 153 248 228 227 257 170 168 295 162 28 342 180 113 39 347 344 336 292 206 179 184 155 183 181 177 174 171 174 177 179 180 184 183 184 193 192 189 189 195 183 175 170 166 175 182 174 175
245 232 220 236 247 252 223 246 285 273 301 329 330 169 129 66 4 360 1 4 252 188 194 189 198 194 179 177 178 181 182 183 183 187 195 200 202 211 183 185 198 185 174 182 175 180 189 176 174
175 287 227 233 228 227 234 214 268 252 269 265 250 269 135 101 26 4 3 9 299 209 205 211 191 226 208 196 190 189 187 189 190 192 194 202 184 217 193 194 197 196 181 180 186 196 182 173 184
228 213 255 250 249 255 190 36 232 252 252 236 337 263 104 166 13 348 5 68 171 191 196 204 207 206 224 215 203 199 200 198 193 197 198 198 196 199 197 194 202 202 190 180 185 195 187 184 192
229 248 219 222 219 255 122 274 283 248 255 328 240 238 205 136 349 330 360 46 57 174 216 214 218 224 227 220 206 206 201 201 200 203 202 201 198 193 198 197 213 212 194 188 183 204 194 193 195
224 234 248 236 196 118 139 288 164 299 269 247 221 245 35 9 343 341 86 85 45 53 242 238 232 236 240 241 229 213 221 208 204 200 200 202 209 206 199 193 205 225 209 196 187 202 199 200 180
229 246 236 107 203 240 219 261 293 269 231 239 235 219 182 336 338 317 312 299 319 325 317 291 249 255 247 248 247 233 231 228 219 215 218 212 217 214 209 199 193 205 220 199 200 198 200 188 188
167 262 57 219 256 269 272 264 249 258 257 246 253 233 215 285 275 281 295 304 312 303 284 269 293 290 260 246 248 242 241 242 233 227 216 216 225 220 210 204 203 207 213 209 205 204 210 206 197
248 246 246 29 154 261 259 296 263 243 252 320 250 223 267 265 262 263 287 306 303 291 276 267 265 271 266 267 261 245 239 246 245 231 224 210 214 218 213 211 203 204 207 206 209 205 205 213 198
245 303 262 273 271 264 272 261 267 264 261 254 242 259 267 254 254 257 274 280 278 274 277 273 272 266 264 263 258 254 251 236 238 242 236 220 216 212 212 212 210 202 205 207 214 216 202 201 196
358 293 284 295 298 287 289 276 298 201 59 203 233 238 245 229 242 272 274 279 275 270 270 273 267 260 257 252 253 258 258 253 239 225 242 228 229 222 216 218 212 205 218 210 215 207 202 198 185
285 293 276 265 341 305 304 262 229 259 235 258 253 239 234 240 271 265 280 273 280 280 279 268 274 267 255 256 254 253 255 256 259 257 245 229 250 237 205 212 214 206 209 217 218 209 193 199 187
247 241 289 85 338 38 337 279 308 150 206 241 240 243 256 271 274 273 262 263 271 274 278 281 265 262 259 250 245 242 243 247 251 252 252 255 241 226 228 236 209 203 195 203 209 211 191 200 192
204 269 255 273 46 318 275 287 262 165 251 274 273 270 272 284 282 250 238 253 268 276 284 280 277 267 263 262 257 251 253 250 247 245 246 250 254 242 230 219 230 243 214 207 206 197 208 198 190
203 266 250 266 61 262 263 267 284 273 268 275 278 280 275 265 260 278 278 274 264 269 270 271 274 274 270 265 262 251 244 244 250 249 247 245 245 243 246 247 231 203 221 226 211 214 197 204 192
9 275 277 273 349 294 253 275 279 295 282 270 273 259 238 231 202 266 275 330 306 302 312 299 284 265 248 246 251 247 251 244 244 249 246 239 236 241 239 237 244 234 224 204 212 213 207 199 185
296 301 279 283 295 307 310 291 282 302 255 265 304 200 187 191 216 201 357 359 4 322 308 290 279 271 260 260 260 274 278 270 267 266 259 252 250 241 236 228 233 235 236 223 211 208 203 176 180
240 248 290 288 321 257 306 272 272 193 266 234 211 224 214 225 218 206 301 21 8 344 323 305 283 280 276 268 280 281 271 266 263 256 252 247 246 242 238 236 233 229 227 233 229 223 201 187 182
281 50 302 309 337 297 6 287 289 292 277 228 207 209 218 223 228 234 288 304 3 338 317 301 289 280 276 275 273 269 267 268 264 266 257 252 249 250 244 236 234 230 226 222 230 223 241 191 185
353 1 312 307 245 317 105 227 274 310 236 221 206 212 220 225 230 257 279 279 300 316 302 297 291 284 280 277 275 271 266 266 266 262 259 251 250 247 241 241 236 231 231 226 221 226 225 215 218
116 268 249 138 170 241 96 273 272 227 160 170 194 215 225 210 222 265 279 282 281 304 292 292 292 288 286 282 278 275 272 270 266 260 257 252 249 243 240 236 233 229 227 227 232 224 215 193 190
201 276 292 266 230 299 102 262 255 255 210 226 205 196 193 206 252 274 280 288 304 300 301 296 291 288 287 287 284 280 276 274 271 270 262 259 252 244 243 236 226 226 225 221 229 233 224 207 194
171 203 249 278 288 321 161 241 247 252 292 246 245 257 264 261 257 277 295 308 302 299 297 297 296 295 297 296 292 286 280 277 276 271 265 266 263 255 248 241 233 229 227 225 223 232 231 217 206
139 201 82 106 98 267 237 262 274 270 244 241 252 241 247 250 274 294 314 310 302 299 302 306 304 303 303 299 295 286 278 275 267 269 268 269 266 256 250 238 234 233 234 229 224 224 227 221 212
272 133 161 172 275 272 230 260 251 249 223 191 200 212 233 239 285 311 313 303 302 305 309 304 307 306 302 298 293 287 284 285 280 275 268 260 257 259 252 242 234 237 241 235 229 224 222 218 208
157 202 193 307 234 270 302 249 214 235 198 197 237 266 259 256 311 312 308 306 309 308 313 314 315 311 304 300 299 291 285 280 274 271 272 268 263 258 250 246 236 230 230 234 232 229 222 216 208
302 255 193 231 199 249 302 271 188 247 256 265 279 279 272 286 305 314 310 315 317 319 321 323 318 314 307 305 300 293 286 279 273 267 264 260 256 249 251 243 239 228 223 229 232 227 225 217 208